Welcome to the New NWS' Forecast!
Most changes are behind the scenes, but click here for differences you might notice.
Latest weather observations around

Everett Snohomish County (KPAE)

Using English Units (Switch to International System of Units)
Date/ Time (PDT) Wind (mph) Vis. (mi) Weather Sky Cond. Temp (°F) Rel. Humidity Wind Chill (°F) Heat Index (°F) Pressure Precip. (in)
Air Dwpt 6 hour Altimeter (inHg) Sea level (inHg) 1 hr 3 hr 6 hr
Max Min
Sep 22 02:13 SE 13 10 Mostly Cloudy FEW007 SCT019 BKN050 59 57     93%     29.85        
Sep 22 01:53   10 Mostly Cloudy FEW019 SCT042 BKN055 59 57     93%     29.85 29.85   0  
Sep 22 00:53 SE 16 10 Partly Cloudy SCT009 SCT013 58 56     93%     29.84 29.84      
Sep 22 00:44 SSE 17 10 Partly Cloudy SCT009 59 56     90%     29.84        
Sep 21 23:53 SE 14 9 Cloudy BKN009 BKN013 OVC029 59 57     93%     29.85 29.84 0    
Sep 21 23:31 SE 14 5 Light Rain and Fog/Mist BKN007 BKN011 OVC022 58 57     97%     29.85   0    
Sep 21 23:12   4 Light Rain and Fog/Mist SCT009 BKN023 OVC036 59 57     93%     29.85   0    
Sep 21 22:53   9 Light Rain FEW034 BKN046 OVC055 59 56     90%     29.85 29.84 0   0
Sep 21 21:53   6 Light Rain BKN038 OVC050 60 55     83%     29.86 29.85 0    
Sep 21 20:53 SSE 13 10 Mostly Cloudy FEW050 BKN070 62 54     75%     29.86 29.86      
Sep 21 19:53 S 13 10 Cloudy SCT050 BKN065 OVC085 62 55     78%     29.86 29.85   0  
Sep 21 18:53 S 10 10 Partly Cloudy FEW085 SCT120 65 54     68%     29.86 29.85 0    
Sep 21 17:53 SSE 15 10 Light Rain FEW080 OVC100 65 55     70%     29.86 29.85 0    
Sep 21 16:53   10 Cloudy BKN100 OVC120 67 52     59%     29.87 29.86      
Sep 21 15:53   10 Cloudy OVC110 67 51     57%     29.88 29.87      
Sep 21 14:53 SSE 16 10 Mostly Cloudy BKN110 69 51     53%     29.9 29.89      
Sep 21 13:53 SE 14 10 Mostly Cloudy BKN042 70 51     51%     29.91 29.9      
Sep 21 12:56 SE 13 10 Mostly Cloudy BKN042 66 51     59%     29.93        
Sep 21 12:53 SE 11 10 Mostly Cloudy BKN024 BKN045 66 51     59%     29.93 29.93      
Sep 21 11:53 SSE 11 10 Mostly Cloudy BKN024 BKN045 66 52     61%     29.95 29.95      
Sep 21 10:53 SSE 11 10 Mostly Cloudy BKN024 BKN030 64 50     60%     29.97 29.96      
Sep 21 09:53 ESE 15 10 Mostly Cloudy BKN022 62 50     65%     29.98 29.98      
Sep 21 08:53 SE 9 10 Cloudy OVC022 60 50     69%     30 29.99      
Sep 21 07:53 ESE 10 10 Cloudy OVC019 60 49     67%     30 29.99      
Sep 21 06:53 SE 8 10 Mostly Cloudy BKN021 59 49     69%     30.01 30.01      
Sep 21 06:48 SE 7 10 Mostly Cloudy BKN021 59 48     67%     30.01        
Sep 21 06:27 SE 9 10 Partly Cloudy SCT021 59 49     69%     30        
Sep 21 06:03 SE 11 10 Mostly Cloudy BKN022 59 49     69%     30        
Sep 21 05:53 SE 13 10 Partly Cloudy SCT021 59 49     69%     30 30      
Sep 21 04:53 SE 15 10 Clear CLR 60 49     67%     30 30      
Sep 21 03:53 ESE 8 10 Mostly Cloudy BKN034 59 49     69%     30.01 30.01      
Sep 21 02:53 ESE 13 10 Partly Cloudy SCT018 59 49     69%     30.01 30.01      
Sep 21 02:45 ESE 14 10 Mostly Cloudy BKN018 59 49     69%     30.01        
Sep 21 01:53 SE 14 10 Mostly Cloudy BKN110 59 50     72%     30.03 30.02      
Sep 21 00:53 SE 11 10 Mostly Cloudy SCT034 BKN100 59 50     72%     30.05 30.04      
Sep 20 23:53 SE 13 10 Cloudy OVC034 60 49     67%     30.06 30.05      
Sep 20 22:53 SE 13 10 Cloudy OVC042 60 49     67%     30.07 30.07      
Sep 20 21:53 SE 10 10 Cloudy OVC044 60 49     67%     30.08 30.08      
Sep 20 20:53 SE 8 10 Cloudy OVC042 61 48     62%     30.09 30.09      
Sep 20 19:53 ESE 8 10 Cloudy BKN043 OVC050 61 46     58%     30.1 30.09      
Sep 20 15:53 SSE 9 10 Cloudy OVC080 62 47     58%     30.13 30.12      
Sep 20 14:53 SE 10 10 Cloudy OVC085 62 46     56%     30.13 30.13      
Sep 20 13:53 SSW 8 10 Cloudy SCT024 BKN039 OVC090 59 51     75%     30.13 30.13      
Sep 20 12:53 SE 9 10 Cloudy SCT023 BKN039 OVC095 61 48     62%     30.14 30.13      
Sep 20 11:53 SE 9 10 Mostly Cloudy BKN023 BKN045 60 49     67%     30.16 30.16      
Sep 20 10:53 SE 8 10 Cloudy BKN017 BKN033 OVC041 57 49     74%     30.17 30.17      
Sep 20 10:10 SE 7 10 Cloudy SCT013 BKN036 OVC045 56 50     80%     30.17        
Sep 20 09:53 ESE 6 10 Cloudy BKN014 OVC035 55 49     80%     30.17 30.17      
Sep 20 08:53 ESE 6 10 Cloudy OVC012 54 50     86%     30.17 30.16      
Sep 20 08:32 SE 6 10 Cloudy BKN012 BKN018 OVC023 54 50     86%     30.16        
Sep 20 07:53 Calm 10 Cloudy SCT012 BKN021 OVC027 54 50     86%     30.16 30.16      
Sep 20 06:53 Calm 10 Cloudy BKN011 OVC023 53 49     86%     30.15 30.14      
Sep 20 05:53 NW 5 10 Cloudy OVC010 53 50     89%     30.14 30.13      
Sep 20 04:53 NNW 5 10 Cloudy BKN012 OVC020 53 50     89%     30.11 30.11      
Sep 20 04:39 NNW 7 10 Cloudy SCT012 BKN020 OVC047 53 50     89%     30.11        
Sep 20 03:53 NNW 5 10 Cloudy OVC049 54 50     86%     30.11 30.11      
Sep 20 02:53 NW 6 10 Cloudy OVC085 53 50     89%     30.1 30.1      
Sep 20 01:53 NW 3 10 Partly Cloudy SCT085 53 50     89%     30.1 30.1      
Sep 20 00:53 Calm 10 Partly Cloudy SCT047 SCT070 54 50     86%     30.1 30.1      
Sep 19 23:53 NW 3 10 Cloudy FEW048 OVC080 55 51     86%     30.09 30.09      
Sep 19 22:53 Calm 10 Cloudy BKN049 OVC060 56 51     84%     30.1 30.1     0
Sep 19 21:53 NW 6 10 Cloudy BKN070 OVC090 56 50     80%     30.09 30.09 0    
Sep 19 20:53 NNW 9 10 Light Rain OVC070 57 50     77%     30.09 30.09 0    
Sep 19 19:53 NW 5 10 Cloudy OVC055 58 47     67%     30.08 30.09      
Sep 19 18:53 NW 6 10 Cloudy SCT055 OVC095 59 47     64%     30.07 30.07      
Sep 19 17:53 WSW 6 10 Clear CLR 64 44     48%     30.06 30.06      
Sep 19 16:53 6 10 Clear CLR 65 45     48%     30.06 30.06      
Sep 19 15:53 WSW 10 10 Clear CLR 65 45     48%     30.06 30.06      
Sep 19 14:53 WSW 9 10 Clear CLR 65 42     43%     30.07 30.07      
Sep 19 13:53 SW 7 10 Clear CLR 64 47     54%     30.08 30.08      
Sep 19 12:53 WSW 5 10 Clear CLR 61 48     62%     30.09 30.09      
Sep 19 11:53 3 10 Clear CLR 61 49     64%     30.1 30.1      
Sep 19 10:53 SSE 3 10 Clear CLR 59 46     62%     30.11 30.11      
Sep 19 09:53 Calm 10 Clear CLR 56 48     75%     30.11 30.11      
Sep 19 08:53 S 3 10 Clear CLR 53 48     83%     30.11 30.11      
Sep 19 07:53 Calm 10 Clear CLR 50 47     89%     30.11 30.11      
Sep 19 06:53 E 5 10 Clear CLR 49 46     90% 47   30.1 30.1      
Sep 19 05:53 Calm 10 Clear CLR 50 46     86%     30.09 30.09      
Sep 19 04:53 Calm 10 Clear CLR 49 45     86%     30.09 30.09      
Sep 19 03:53 Calm 10 Clear CLR 47 43     86%     30.09 30.09      
Sep 19 02:53 Calm 10 Clear CLR 50 45     83%     30.08 30.08      
Sep 19 01:53 Calm 10 Clear CLR 52 47     83%     30.08 30.07      
Sep 19 00:53 Calm 10 Clear CLR 51 47     86%     30.08 30.08      
Sep 18 23:53 NNW 3 10 Clear CLR 51 48     89%     30.07 30.08      
Sep 18 22:53 NNW 5 10 Clear CLR 53 48     83%     30.08 30.08      
Sep 18 21:53 NW 5 10 Clear CLR 53 45     74%     30.09 30.09      
Sep 18 20:53 NNW 3 10 Clear CLR 54 46     74%     30.09 30.09      
Sep 18 19:53 WNW 3 10 Clear CLR 56 46     69%     30.09 30.09      
Sep 18 18:53 W 6 10 Clear CLR 58 47     67%     30.09 30.09      
Sep 18 17:53 NW 5 10 Clear CLR 60 47     62%     30.09 30.09      
Sep 18 16:53 NW 6 10 Clear CLR 63 45     52%     30.08 30.08      
Sep 18 15:53 NNW 8 10 Clear CLR 62 46     56%     30.09 30.09      
Sep 18 14:53 6 10 Clear CLR 62 46     56%     30.1 30.1      
Sep 18 13:53 NW 6 10 Clear CLR 61 48     62%     30.12 30.11      
Sep 18 12:53 NNW 7 10 Partly Cloudy SCT013 58 48     70%     30.13 30.13      
Sep 18 12:24 NNW 6 10 Partly Cloudy SCT013 58 48     70%     30.13        
Sep 18 12:17 NNW 8 10 Mostly Cloudy SCT009 BKN013 58 48     70%     30.13        
Sep 18 12:10 NNW 8 10 Mostly Clear FEW013 57 48     72%     30.13        
Sep 18 11:53 NNW 8 10 Mostly Cloudy SCT009 BKN013 56 48     75%     30.14 30.14      
Sep 18 11:34 6 10 Mostly Cloudy SCT009 BKN013 55 48     77%     30.14        
Sep 18 10:53 6 10 Cloudy OVC009 54 48     80%     30.14 30.14      
Sep 18 09:13 NW 6 10 Cloudy OVC009 51 48     89%     30.14        
Sep 18 09:09 6 10 Cloudy OVC010 51 49     92%     30.14        
Sep 18 08:53 WNW 5 6 Fog/Mist OVC009 50 49     96%     30.14 30.14      
Sep 18 08:05 WNW 3 6 Fog/Mist FEW003 OVC008 49 48     97% 48   30.14        
Sep 18 07:53 NW 3 10 Cloudy BKN003 OVC008 48 47     96% 47   30.14 30.14      
Sep 18 06:53 Calm 10 Cloudy OVC004 48 46     93%     30.13 30.13      
Sep 18 06:27 Calm 10 Mostly Cloudy BKN005 46 45     96%     30.13        
Sep 18 06:09 Calm 10 Mostly Clear FEW005 46 44     93%     30.13        
Sep 18 05:53 Calm 10 Clear CLR 46 45     96%     30.12 30.12      
Sep 18 04:53 WNW 3 10 Clear CLR 46 44     93% 45   30.12 30.12      
Sep 18 03:53 Calm 10 Clear CLR 47 45     93%     30.12 30.12      
Sep 18 02:53 NW 5 10 Clear CLR 47 44     90% 45   30.12 30.12      
Sep 18 01:53 NW 5 10 Clear CLR 48 44     86% 46   30.12 30.12      
Sep 18 00:53 NW 6 10 Clear CLR 50 44     80%     30.12 30.12      
Sep 17 23:53 NNW 5 10 Clear CLR 50 45     83%     30.12 30.12      
Sep 17 22:53 NW 6 10 Clear CLR 50 44     80%     30.12 30.12      
Sep 17 21:53 NW 5 10 Clear CLR 51 42     71%     30.12 30.13      
Sep 17 20:53 NW 5 10 Clear CLR 51 42     71%     30.12 30.12      
Sep 17 19:53 NW 6 10 Clear CLR 54 43     66%     30.11 30.12      
Sep 17 18:53 WNW 7 10 Clear CLR 57 42     57%     30.11 30.11      
Sep 17 17:53 NW 8 10 Clear CLR 60 43     53%     30.11 30.11      
Sep 17 16:53 NNW 8 10 Clear CLR 61 43     52%     30.11 30.11      
Sep 17 15:53 NNW 9 10 Clear CLR 61 41     48%     30.11 30.11      
Sep 17 14:53 NNW 9 10 Clear CLR 62 42     48%     30.11 30.11      
Sep 17 13:53 NNW 9 10 Clear CLR 61 43     52%     30.13 30.13      
Sep 17 12:53 NW 7 10 Clear CLR 60 41     49%     30.15 30.14      
Sep 17 11:53 NNW 7 10 Clear CLR 59 45     60%     30.16 30.16      
Sep 17 10:53 NNW 7 10 Mostly Cloudy BKN045 56 45     67%     30.17 30.16      
Sep 17 09:53 N 6 10 Mostly Cloudy BKN036 54 47     77%     30.16 30.16      
Sep 17 08:53 N 5 10 Cloudy OVC031 52 47     83%     30.15 30.15      
Sep 17 07:53 3 10 Clear CLR 51 49     92%     30.15 30.15      
Sep 17 06:53 NW 3 10 Clear CLR 49 48     97% 48   30.14 30.14      
Sep 17 06:26 NW 5 10 Partly Cloudy SCT001 49 48     97% 47   30.13        
Sep 17 06:05 Calm 10 Mostly Cloudy BKN001 50 49     96%     30.13        
Sep 17 05:53 NW 3 10 Mostly Clear FEW003 50 48     93%     30.13 30.13      
Sep 17 05:10 N 3 10 Mostly Cloudy FEW003 BKN032 BKN055 51 50     96%     30.13        
Sep 17 04:53 Calm 10 Mostly Cloudy SCT031 BKN055 51 49     92%     30.13 30.13     0
Sep 17 03:53 Calm 10 Cloudy FEW028 SCT042 OVC050 52 50     93%     30.13 30.13      
Sep 17 03:49 Calm 10 Cloudy SCT028 SCT038 OVC048 52 50     94%     30.13        
Sep 17 03:20 NNW 3 10 Cloudy BKN027 BKN038 OVC050 53 50     89%     30.13        
Sep 17 02:53 Calm 10 Cloudy BKN039 OVC055 52 51     97%     30.13 30.13      
Sep 17 02:15 NNW 5 10 Cloudy FEW017 FEW024 OVC033 53 51     93%     30.13        
Sep 17 01:53 NNW 3 10 Cloudy BKN022 OVC031 53 51     93%     30.13 30.13 0 0  
Sep 17 01:14 NW 5 10 Light Rain FEW006 OVC015 53 51     93%     30.12   0    
Sep 17 01:04 NW 5 8 Light Rain OVC013 53 52     96%     30.12   0    
Sep 17 00:53 NNW 5 7 Light Rain OVC015 54 52     93%     30.12 30.12 0    
Sep 17 00:33 Calm 10 Light Rain SCT004 OVC016 54 52     93%     30.12   0    
Sep 17 00:23 N 3 10 Cloudy BKN003 OVC018 54 53     97%     30.12        
Sep 17 00:14 Calm 10 Cloudy FEW003 SCT006 OVC018 54 53     97%     30.12        
Sep 16 23:53 Calm 10 Cloudy OVC020 54 52     93%     30.11 30.11      
Sep 16 23:15 NE 3 10 Cloudy BKN019 OVC029 55 51     86%     30.1        
Sep 16 22:53 NNE 5 10 Cloudy SCT019 OVC031 55 52     89%     30.1 30.1 0   0
Sep 16 22:26 N 3 10 Cloudy FEW019 BKN030 OVC036 55 52     89%     30.09   0    
Sep 16 22:15 NNW 3 10 Light Rain OVC029 55 52     89%     30.09   0    
Sep 16 21:53 NNW 6 10 Light Rain OVC030 56 50     80%     30.08 30.08 0    
Sep 16 20:53 N 5 10 Cloudy OVC039 56 50     80%     30.06 30.06      
Sep 16 19:53 N 6 10 Mostly Cloudy BKN080 56 49     77%     30.03 30.03      
Sep 16 18:53 WNW 5 10 Partly Cloudy FEW025 SCT060 57 50     77%     30.01 30.01      
Sep 16 17:53 SW 7 10 Cloudy FEW045 OVC070 61 49     64%     29.99 29.99      
Sep 16 17:10 SSW 7 10 Cloudy SCT031 BKN041 OVC070 59 51     75%     29.97        
Sep 16 16:53 SSW 10 10 Cloudy FEW022 BKN029 OVC044 60 52     75%     29.97 29.96 0   0
Sep 16 16:46 SSW 9 10 Light Rain FEW021 BKN028 OVC039 58 52     81%     29.97   0    
Sep 16 15:53   10 Cloudy BKN032 OVC040 63 48     58%     29.95 29.94      
Sep 16 14:57 SSE 16 10 Mostly Cloudy SCT025 BKN055 63 50     63%     29.93        
Sep 16 14:53   10 Mostly Cloudy SCT010 BKN014 BKN055 63 50     63%     29.93 29.93      
May 14 07:53 SE 3 10 Clear CLR 65 53     65%     29.97 29.96      
Notice The following observation data may not be complete
May 14 05:53 ESE 3 10 Clear CLR   51      %     29.96 29.95      
May 14 02:53 E 8 10 Clear CLR 63 52     67%     29.94 29.93      
May 13 04:53 NNW 7 10 Clear CLR 55 50     83%     29.97 29.97      
May 12 08:17 NNW 5 1.5 Fog/Mist SCT001 51 50     96%     30.19        
May 12 02:53 NNW 5 10 Clear CLR 50 48     93% 48   30.2 30.19      
May 12 01:53 NNW 5 10 Clear CLR 50 47     89% 48   30.2 30.2      
May 11 18:53 NW 6 10 Clear CLR 63 47     56%     30.21 30.21      
Jun 11 21:53 5 10 Clear CLR 56 49     77%     30 30      
Jun 11 20:53 NW 5 10 Clear   58 48     70%     30 29.99      
Jun 11 19:53 NW 6 10 Clear   63 45     52%     30 29.99      
Jun 11 11:53 WSW 7 10 Clear CLR 59 51     75%     30.05 30.05      
Jun 10 23:53 N 6 10 Clear   54 48     80%     29.95 29.95      
Jun 10 16:53 NW 7 10 Clear CLR 61 43     52%     29.87 29.87      
Notice The following observation data may not be complete
Jun 10 02:39   10 Cloudy BKN015 OVC080          %              
Jun 10 01:48   10 Cloudy FEW016 BKN070 OVC085 52 46     82%     29.87        
Jun 09 11:10 Calm 10 Cloudy FEW025 BKN031 OVC080 55 46     72%     29.89        
Jun 09 06:53 ESE 9 10 Cloudy OVC055 50 46     86% 46   29.91 29.91      
Jun 09 02:53 SSE 8 10 Mostly Cloudy BKN070 51 45     79%     29.95 29.94      
Jun 08 07:29 SSE 8 8 Light Rain SCT004 BKN009 BKN045 56 54     93%     29.64   0    
Jun 06 05:53 WNW 3 10 Clear CLR 52 48     86%     30.03 30.02      
Jun 05 22:53 5 10 Clear CLR 53 47     80%     30.08 30.08      
Jun 05 18:53 NW 7 10 Clear CLR 65 47     52%     30.07 30.07